Stations météo

réclame
Mon MeteoGroup
Mildenhall Royal Air Force Bas, Grande-Bretagne (3577): Température de l'air & dewpoint: 12.08.2019 22:00:00 - 18.08.2019 22:00:00 (BST)Mildenhall Royal Air Force Bas, Grande-Bretagne (3577): Vitesse du vent & gusts: 12.08.2019 22:00:00 - 18.08.2019 22:00:00 (BST)Mildenhall Royal Air Force Bas, Grande-Bretagne (3577): Direction du vent: 12.08.2019 22:00:00 - 18.08.2019 22:00:00 (BST)Mildenhall Royal Air Force Bas, Grande-Bretagne (3577): reduced air pressure: 12.08.2019 22:00:00 - 18.08.2019 22:00:00 (BST)Mildenhall Royal Air Force Bas, Grande-Bretagne (3577): visibility: 12.08.2019 22:00:00 - 18.08.2019 22:00:00 (BST)Mildenhall Royal Air Force Bas, Grande-Bretagne (3577): Quantités de précipitations: 12.08.2019 22:00:00 - 18.08.2019 22:00:00 (BST)
Date & Time tt [°C] td [°C] ff [km/h] ff [knt] fx [km/h] fx [knt] dd ppp [hPa] vv [km] rr [mm]
18.08.2019 22:00:00 16,3 10,8 24 13 - - SW - 10 -
18.08.2019 21:00:00 16,9 8,8 22 12 - - SW 1006,0 10 -
18.08.2019 20:00:00 18,1 8,6 22 12 - - WSW - 10 -
18.08.2019 19:00:00 19,9 8,2 24 13 - - WSW - 10 -
18.08.2019 18:00:00 20,7 8,3 29 16 - - WSW - 10 -
18.08.2019 17:00:00 20,9 9,2 24 13 48 26 WSW - 10 -
18.08.2019 16:00:00 22,1 8,9 24 13 52 28 WSW 1003,7 10 -
18.08.2019 15:00:00 20,8 10,6 22 12 - - WSW 1003,7 10 -
18.08.2019 14:00:00 20,5 11,1 22 12 - - WSW 1003,3 10 -
18.08.2019 13:00:00 19,2 13,6 24 13 - - SW 1003,0 10 -
18.08.2019 12:00:00 15,9 15,9 16 9 - - SSW 1003,3 10 1,5
18.08.2019 11:00:00 16,8 14,1 24 13 - - W 1003,3 10 -
18.08.2019 10:00:00 18,8 12,8 22 12 - - SW 1002,3 10 -
18.08.2019 09:00:00 16,2 14,4 16 9 - - SW 1002,0 10 -
18.08.2019 08:00:00 16,0 13,0 18 10 - - SW 1001,9 10 -
18.08.2019 07:00:00 14,0 13,0 9 5 - - S 1002,0 10 -
18.08.2019 06:00:00 - - - - - - - - - -
18.08.2019 05:00:00 15,0 13,0 13 7 - - SSW 1002,3 10 -
18.08.2019 04:00:00 15,1 15,1 13 7 - - SSW 1002,6 10 0,0
18.08.2019 03:00:00 15,0 14,4 11 6 - - S 1002,7 10 -
18.08.2019 02:00:00 15,5 11,5 8 4 - - SW 1003,7 10 -
18.08.2019 01:00:00 15,4 11,4 11 6 - - WSW 1003,3 10 -
18.08.2019 00:00:00 16,8 10,4 8 4 - - WSW 1004,0 10 -
17.08.2019 23:00:00 16,5 9,7 11 6 - - SSW 1004,0 10 -
17.08.2019 22:00:00 16,8 9,2 9 5 - - SSW 1004,0 10 -
17.08.2019 21:00:00 17,1 8,2 5 3 - - SSW 1003,7 10 -
17.08.2019 20:00:00 18,7 7,5 13 7 - - SW 1003,7 10 -
17.08.2019 19:00:00 21,0 6,1 21 11 - - WSW - 10 -
17.08.2019 18:00:00 22,0 5,4 35 19 48 26 W - 10 -
17.08.2019 17:00:00 22,6 6,8 34 18 48 26 WSW - 10 -
17.08.2019 16:00:00 23,2 8,1 34 18 48 26 W - 10 -
17.08.2019 15:00:00 21,2 12,6 22 12 - - W - 10 -
17.08.2019 14:00:00 22,3 11,7 29 16 - - WSW 1003,0 10 -
17.08.2019 13:00:00 21,1 14,0 29 16 - - WSW 1003,0 10 0,0
17.08.2019 12:00:00 20,0 13,4 28 15 - - WSW 1003,0 10 -
17.08.2019 11:00:00 20,4 14,1 24 13 - - WSW 1003,3 10 -
17.08.2019 10:00:00 19,2 14,9 22 12 - - SW 1003,0 10 -
17.08.2019 09:00:00 17,8 15,4 24 13 - - SW 1003,0 10 -
17.08.2019 08:00:00 16,1 15,9 21 11 - - SW 1002,7 10 -
17.08.2019 07:00:00 15,0 12,0 13 7 - - SW 1002,7 10 -
17.08.2019 06:00:00 14,0 12,0 18 10 - - SW 1002,0 10 -
17.08.2019 05:00:00 16,0 13,0 15 8 - - WSW 1002,0 10 -
17.08.2019 04:00:00 17,0 16,0 21 11 - - WSW - 10 -
17.08.2019 03:00:00 17,0 16,0 21 11 - - SSW 1001,1 10 -
17.08.2019 02:00:00 17,0 17,0 22 12 - - SSW 1001,3 10 -
17.08.2019 01:00:00 17,0 17,0 21 11 - - SSW 1001,6 10 -
17.08.2019 00:00:00 16,8 16,8 21 11 - - SSW 1002,0 10 1,0
16.08.2019 23:00:00 16,6 16,6 26 14 - - SSW - 10 0,5
16.08.2019 22:00:00 16,3 16,3 29 16 - - SSW - 10 0,5
16.08.2019 21:00:00 16,0 16,0 24 13 - - S 1003,7 10 0,5
16.08.2019 20:00:00 16,1 16,1 26 14 - - S 1004,0 10 0,3
16.08.2019 19:00:00 15,8 15,8 21 11 - - S 1005,4 10 0,5
16.08.2019 18:00:00 15,9 15,9 22 12 - - S 1006,1 10 0,5
16.08.2019 17:00:00 16,1 16,1 22 12 - - S 1007,4 10 0,5
16.08.2019 16:00:00 16,0 16,0 24 13 - - S 1007,8 10 0,0
16.08.2019 15:00:00 16,9 15,6 24 13 - - SSW 1008,8 10 0,3
16.08.2019 14:00:00 19,0 13,6 26 14 - - SSW 1009,1 10 0,0
16.08.2019 13:00:00 17,9 14,6 24 13 - - SSW 1010,1 10 0,0
16.08.2019 12:00:00 19,0 13,0 24 13 - - SSW - 8 0,0
16.08.2019 11:00:00 19,0 11,0 22 12 - - SSW - 10 -
16.08.2019 10:00:00 19,0 13,0 18 10 - - SSW - 10 -
16.08.2019 09:00:00 16,6 14,8 15 8 - - SSW 1013,2 10 -
16.08.2019 08:00:00 15,1 14,9 13 7 - - S 1013,5 10 -
16.08.2019 07:00:00 12,8 12,8 8 4 - - S 1013,8 10 -
16.08.2019 06:00:00 11,6 11,6 5 3 - - SSE 1014,2 10 -
16.08.2019 05:00:00 11,2 11,2 8 4 - - S 1014,5 10 -
16.08.2019 04:00:00 10,8 10,8 9 5 - - S 1015,2 10 -
16.08.2019 03:00:00 10,4 10,4 0 0 - - N 1015,5 10 -
16.08.2019 02:00:00 11,2 10,6 5 3 - - S 1015,9 10 -
16.08.2019 01:00:00 11,0 11,0 9 5 - - SSW - 10 -
16.08.2019 00:00:00 11,0 7,0 5 3 - - S - 10 -
15.08.2019 23:00:00 12,6 9,2 5 3 - - S 1015,9 10 -
15.08.2019 22:00:00 13,7 8,7 0 0 - - N 1015,5 10 -
15.08.2019 21:00:00 15,7 8,7 9 5 - - NW 1015,2 10 -
15.08.2019 20:00:00 17,4 8,8 9 5 - - NW 1014,8 10 -
15.08.2019 19:00:00 19,1 9,0 21 11 - - NW 1014,2 10 -
15.08.2019 18:00:00 20,6 7,6 29 16 - - WNW 1013,2 10 -
15.08.2019 17:00:00 21,1 8,0 31 17 - - WNW 1012,8 10 -
15.08.2019 16:00:00 20,9 7,5 31 17 52 28 NW 1012,1 10 -
15.08.2019 15:00:00 21,2 8,5 31 17 54 29 NW 1011,4 10 -
15.08.2019 14:00:00 21,2 10,4 35 19 52 28 NW 1010,8 10 -
15.08.2019 13:00:00 20,9 12,3 42 23 - - WNW 1010,1 10 -
15.08.2019 12:00:00 19,3 13,0 34 18 50 27 W 1009,4 10 -
15.08.2019 11:00:00 17,8 14,3 28 15 - - W 1008,7 10 0,0
15.08.2019 10:00:00 15,7 15,7 22 12 - - W 1008,4 10 0,3
15.08.2019 09:00:00 17,0 14,8 24 13 - - W 1007,7 10 -
15.08.2019 08:00:00 16,2 15,2 18 10 - - WSW 1007,4 10 -
15.08.2019 07:00:00 15,2 15,2 15 8 - - WSW 1007,1 10 -
15.08.2019 06:00:00 14,9 14,9 18 10 - - WSW 1006,4 10 -
15.08.2019 05:00:00 15,9 15,9 21 11 - - WSW 1006,0 10 -
15.08.2019 04:00:00 16,8 16,8 15 8 - - W 1005,7 10 -
15.08.2019 03:00:00 17,0 17,0 18 10 - - WSW 1005,4 10 -
15.08.2019 02:00:00 17,0 17,0 22 12 - - SW 1005,4 10 -
15.08.2019 01:00:00 17,3 17,3 18 10 - - SW 1005,7 10 -
15.08.2019 00:00:00 17,2 17,2 21 11 - - SW 1005,7 10 -
14.08.2019 23:00:00 17,1 17,1 16 9 - - SSW 1005,7 10 -
14.08.2019 22:00:00 17,2 17,2 16 9 - - SW 1006,0 10 -
14.08.2019 21:00:00 17,0 17,0 22 12 - - SSW 1006,4 10 -
14.08.2019 20:00:00 17,0 17,0 22 12 - - SSW - 10 -
14.08.2019 19:00:00 17,2 17,2 28 15 - - SSW - 10 -
14.08.2019 18:00:00 16,8 16,8 21 11 - - S - 10 -
14.08.2019 17:00:00 16,4 16,4 28 15 - - S - 10 -
14.08.2019 16:00:00 15,0 15,0 18 10 - - S - 10 1,5
14.08.2019 15:00:00 14,4 14,4 22 12 - - SE - 8 5,8
14.08.2019 14:00:00 15,6 15,6 31 17 - - S - 10 1,3
14.08.2019 13:00:00 15,2 15,2 18 10 - - S - 10 1,0
14.08.2019 12:00:00 15,4 15,4 21 11 - - S - 10 0,3
14.08.2019 11:00:00 19,0 12,3 24 13 - - SSW - 10 -
14.08.2019 10:00:00 18,4 13,9 16 9 - - SSW - 10 -
14.08.2019 09:00:00 17,0 13,0 15 8 - - SW - 10 -
14.08.2019 08:00:00 15,0 12,0 8 4 - - S 1014,4 10 -
14.08.2019 07:00:00 14,0 11,0 8 4 - - S 1014,9 10 -
14.08.2019 06:00:00 14,0 11,0 8 4 - - S 1014,8 10 -
14.08.2019 05:00:00 13,0 9,0 0 0 - - N 1014,8 10 -
14.08.2019 04:00:00 11,0 8,0 5 3 - - S 1015,2 10 -
14.08.2019 03:00:00 11,0 7,0 0 0 - - N 1015,5 10 -
14.08.2019 02:00:00 11,0 7,0 5 3 - - S 1015,9 10 -
14.08.2019 01:00:00 10,0 7,0 0 0 - - N 1015,9 10 -
14.08.2019 00:00:00 9,5 7,1 0 0 - - N - 10 -
13.08.2019 23:00:00 10,7 8,1 0 0 - - N - 10 -
13.08.2019 22:00:00 11,4 8,6 0 0 - - N - 10 -
13.08.2019 21:00:00 14,5 8,4 0 0 - - N - 10 -
13.08.2019 20:00:00 17,5 8,4 0 0 - - N - 10 -
13.08.2019 19:00:00 18,9 8,2 8 4 - - N - 10 -
13.08.2019 18:00:00 20,3 4,3 16 9 - - W - 10 -
13.08.2019 17:00:00 20,8 5,2 18 10 - - WNW - 10 -
13.08.2019 16:00:00 19,8 6,2 18 10 - - WNW - 10 -
13.08.2019 15:00:00 20,0 11,0 18 10 - - WNW - 10 -
13.08.2019 14:00:00 20,0 10,0 18 10 - - WNW - 10 -
13.08.2019 13:00:00 18,0 9,0 22 12 - - WNW - 10 -
13.08.2019 12:00:00 18,0 8,0 22 12 - - WNW - 10 -
13.08.2019 11:00:00 17,0 9,0 21 11 - - WNW - 10 -
13.08.2019 10:00:00 16,0 9,0 21 11 - - WNW - 10 -
13.08.2019 09:00:00 15,0 10,0 18 10 - - WNW - 10 -
13.08.2019 08:00:00 13,0 10,0 13 7 - - SW 1016,1 10 -
13.08.2019 07:00:00 12,0 10,0 13 7 - - WSW 1015,5 10 -
13.08.2019 06:00:00 11,0 9,0 13 7 - - SW 1015,5 10 -
13.08.2019 05:00:00 11,0 7,0 8 4 - - SSW 1015,5 10 -
13.08.2019 04:00:00 10,0 6,0 5 3 - - SSW 1015,7 10 -
13.08.2019 03:00:00 9,0 6,0 0 0 - - N 1015,9 10 -
13.08.2019 02:00:00 9,0 6,0 0 0 - - N 1015,9 10 -
13.08.2019 01:00:00 10,0 6,0 0 0 - - N 1016,2 10 -
13.08.2019 00:00:00 11,4 6,3 0 0 - - N - 10 -
12.08.2019 23:00:00 11,7 7,0 0 0 - - N - 10 -
12.08.2019 22:00:00 12,6 9,2 0 0 - - N - 10 -

tt = Température de l'air
td = dewpoint
ff = Vitesse du vent
fx = gusts
dd = Direction du vent
ppp = reduced air pressure
vv = visibility
rr = Quantités de précipitations

stations d'obs. à proximité